Location: Zilina
(49.2170°N, 18.7330°E)
Time: 23:42:03
(UTC+02:00)

ISS - Pass Details

Date: 24 March 2019
Orbit: 408 x 410 km, 51.6° (Epoch: 26 April)

Event Time Altitude Azimuth Distance (km) Brightness Sun altitude
Rises 21:03:15 0° 269° (W) 2,334 0.7 -27.7°
Reaches altitude 10° 21:05:22 10° 274° (W) 1,473 -0.4 -27.9°
Enters shadow 21:06:01 15° 276° (W) 1,217 -0.8 -28.0°
